Regional Weather Roundup
Issued by NWS Newport/Morehead, NC

Current Version | Previous Version | Text Only | Print | Product List | Glossary On
Versions: 1 2 3 4 5 6 7 8 9 10 11 12 13 14 15 16 17 18 19 20 21 22 23 24 25 26 27 28 29 30 31 32 33 34 35 36 37 38 39 40 41 42 43 44 45 46 47 48 49 50
000
ASUS42 KMHX 301813
RWRMHX
WEATHER ROUNDUP FOR EASTERN NORTH CAROLINA
NATIONAL WEATHER SERVICE NEWPORT/MOREHEAD CITY NC
200 PM EDT SAT JUL 30 2016

NOTE: "FAIR" INDICATES FEW OR NO CLOUDS BELOW 12,000 FEET
WITH NO SIGNIFICANT WEATHER AND/OR OBSTRUCTIONS TO VISIBILITY

NCZ015>017-031-032-045>047-102-103-301900-
NORTH COAST

CITY           SKY/WX    TMP DP  RH WIND       PRES   REMARKS
EDENTON        HVY RAIN  77  76  97 NE6       29.98F
ELIZABETH CITY CLOUDY    87  75  67 E16       29.97F
KITTY HAWK     CLOUDY    91  79  67 SE9       30.00R HX 107
MANTEO         CLOUDY    84  77  78 SE8       30.01R

$$

NCZ045>047-081-094-103-104-301900-
CENTRAL COAST

CITY           SKY/WX    TMP DP  RH WIND       PRES   REMARKS
FRISCO         CLOUDY    84  78  82 S7        30.01R

$$

NCZ095-097-098-100-101-301900-
SOUTHERN COAST

CITY           SKY/WX    TMP DP  RH WIND       PRES   REMARKS
BEAUFORT       MOSUNNY   87  81  82 S15       29.97F HX 104
CEDAR ISLAND   NOT AVBL
JACKSONVILLE   TSTM      80  71  74 VRB7G26   29.96S
PINEY ISLAND   NOT AVBL
WILMINGTON     CLOUDY    94  73  50 S12       29.97F HX 103


$$

NCZ011>013-027>030-043-044-078>080-089-090>093-098-301900-
COASTAL PLAIN

CITY           SKY/WX    TMP DP  RH WIND       PRES   REMARKS
AHOSKIE        SUNNY     87  77  74 SE3       29.94F
CLINTON        SUNNY     96  71  43 SW9G16    29.96F HX 103
ELIZABETHTOWN  MOSUNNY   97  68  39 SW12G17   29.97F HX 102
GOLDSBORO      MOSUNNY   91  79  67 VRB2      29.92F HX 107
GREENVILLE     HVY RAIN  79  73  83 SW17G25   29.98R
HAVELOCK       CLOUDY    93  78  61 S15       29.96F HX 108
KENANSVILLE    NOT AVBL
KINSTON        PTSUNNY   99  70  39 SW13G18   29.94F HX 105
NEW BERN       MOSUNNY   95  75  52 VRB5      29.95F HX 107
RICHLANDS      MOSUNNY   89  72  56 S6        29.95F
ROCKY MOUNT    CLOUDY    93  75  55 SW8       29.95F HX 104
WASHINGTON     SUNNY     92  77  60 S7        29.93F HX 106
WHITEVILLE     SUNNY     96  70  43 W7        29.97F HX 102

$$

AMZ130-135-150-152-154-156-158-170-250-252-270-ANZ085-086-088-633-658-670-301900-
MARINE OBSERVATIONS

STATION/POSITION TIME  TEMP    WIND        PRES    WAVE   SWELL
                       AIR SEA DIR/SP/G            HT/PER HT/PER
                 (UTC) (F)     (DEG/KT/KT) (MB)    (FT/S) (FT/S)
CHESAPEAKE LIGHT NOT AVBL
64 E VA BEACH    1750   81 84  100/  8/ 10 1015.7    3/ 6   2/ 6
DUCK             1700   83 80  100/ 11/ 12 1015.2
2 E DUCK         1711      82                N/A     2/ 7
OREGON INLET     1700   83 76   80/  8/ 11 1015.6
13E OREGON INLT  1800      81                N/A     2/ 6   2/ 6
HATTERAS CG      1700   84 83  140/  6/  9 1015.6
DIAMOND BUOY     1750   83 85  170/ 14/ 16 1016.1    3/ 6   2/ 6
CAPE LOOKOUT     1800   86     200/ 12/ 14 1014.9
BEAUFORT LAB     1700   85 84  180/  9/ 11 1015.2
30 SE NEW RVR IN 1708   85 85  210/ 10/ 14 1016.0
30 SE NEW RVR IN 1725      85                N/A     3/ 6
27 SE WRIGHTSVLE 1708   85 85  200/ 10/ 14 1016.2
5 SE WRIGHTSVLE  1708   83 82  200/ 14/ 17 1016.2
225 S CAPE HAT   1750   85 85  230/ 10/ 12 1018.5    3/ 6   2/ 6
41 SE CHARLESTON 1750   85 86  230/ 10/ 10 1016.1    3/ 6   3/ 6

$$



USA.gov is the U.S. government's official web portal to all federal, state and local government web resources and services.